Weather History for Erzurum, Turkey

Change the Weather History Date:

Friday, December 21, 2012

  Actual Average Record
Temperature  
Mean Temperature 28 °F -  
Max Temperature 34 °F 27 °F 39 °F (2006)
Min Temperature 21 °F 13 °F -18 °F (1997)
Degree Days  
Heating Degree Days 38    
Moisture  
Dew Point 29 °F    
Average Humidity 97    
Maximum Humidity 100    
Minimum Humidity 87    
Precipitation  
Precipitation 0.00 in 0.03 in - ()
Sea Level Pressure  
Sea Level Pressure 29.73 in    
Wind  
Wind Speed 2 mph ()    
Max Wind Speed 7 mph    
Max Gust Speed -    
Visibility 4.6 miles    
Events Fog , Snow    
Averages and records for this station are not official NWS values.
T = Trace of Precipitation, MM = Missing Value Source: Averaged Metar Reports

Daily Weather History Graph

Daily Weather History Graph

Search for Another Location

Airport:

Trip Planner

Search our weather history database for the weather conditions in past years. The results will help you decide how hot, cold, wet, or windy it might be!

Date:

Astronomy

Dec. 21, 2012 Rise Set
Actual Time 6:33 AM EET 3:53 PM EET
Civil Twilight 6:03 AM EET 4:24 PM EET
Nautical Twilight 5:28 AM EET 4:58 PM EET
Astronomical Twilight 4:55 AM EET 5:31 PM EET
Moon 11:29 AM EET (12/21) No Moon Set
Length of Visible Light 10h 21m
Length of Day
9h 19m
First Quarter, 62% of the Moon is Illuminated
Dec 21
First Quarter
Dec 28
Full
Jan 5
Last Quarter
Jan 11
New
Jan 19
First Quarter

Hourly Weather History & Observations

Time (EET) Temp. Windchill Dew Point Humidity Pressure Visibility Wind Dir Wind Speed Gust Speed Precip Events Conditions
12:20 AM 30.2 °F - 30.2 °F 100% 29.71 in 4.3 mi Calm Calm - N/A   Mostly Cloudy
12:50 AM 30.2 °F - 30.2 °F 100% 29.71 in 5.0 mi Calm Calm - N/A   Mostly Cloudy
1:20 AM 30.2 °F - 30.2 °F 100% 29.71 in 5.0 mi Calm Calm - N/A   Mostly Cloudy
1:50 AM 30.2 °F - 30.2 °F 100% 29.71 in 5.0 mi Calm Calm - N/A   Mostly Cloudy
2:00 AM 30 °F - 30 °F 100%  in 5 mi Calm Calm - -   Mist
2:20 AM 30.2 °F - 30.2 °F 100% 29.71 in 4.3 mi Calm Calm - N/A   Mostly Cloudy
2:50 AM 30.2 °F - 30.2 °F 100% 29.71 in 4.3 mi Calm Calm - N/A   Mostly Cloudy
3:20 AM 30.2 °F - 30.2 °F 100% 29.71 in 5.0 mi Calm Calm - N/A   Mostly Cloudy
3:50 AM 30.2 °F - 30.2 °F 100% 29.71 in 5.0 mi Calm Calm - N/A   Mostly Cloudy
4:20 AM 30.2 °F - 30.2 °F 100% 29.71 in 5.0 mi Calm Calm - N/A   Mostly Cloudy
4:50 AM 32.0 °F - 30.2 °F 93% 29.71 in 5.0 mi Calm Calm - N/A   Mostly Cloudy
5:20 AM 32.0 °F 25.6 °F 32.0 °F 100% 29.71 in 4.3 mi East 6.9 mph - N/A   Mostly Cloudy
5:50 AM 30.2 °F 25.4 °F 30.2 °F 100% 29.71 in 3.7 mi ESE 4.6 mph - N/A Snow Light Snow
6:20 AM 30.2 °F - 30.2 °F 100% 29.71 in 5.0 mi ESE 2.3 mph - N/A Snow Light Snow
6:50 AM 28.4 °F - 28.4 °F 100% 29.71 in 4.3 mi Variable 2.3 mph - N/A   Mostly Cloudy
7:20 AM 30.2 °F 25.4 °F 30.2 °F 100% 29.71 in 5.0 mi NNE 4.6 mph - N/A   Mostly Cloudy
7:50 AM 30.2 °F 25.4 °F 30.2 °F 100% 29.71 in 5.0 mi ENE 4.6 mph - N/A   Mostly Cloudy
8:00 AM 31 °F - 31 °F 97%  in 5 mi ENE 4.6 mph - -   Mist
8:20 AM 32.0 °F - 30.2 °F 93% 29.71 in 5.0 mi Variable 2.3 mph - N/A   Mostly Cloudy
8:50 AM 32.0 °F 28.7 °F 32.0 °F 100% 29.74 in 5.0 mi NNW 3.5 mph - N/A   Mostly Cloudy
9:20 AM 32.0 °F 27.5 °F 32.0 °F 100% 29.74 in 5.0 mi Variable 4.6 mph - N/A   Mostly Cloudy
9:50 AM 32.0 °F 28.7 °F 32.0 °F 100% 29.74 in 4.3 mi ESE 3.5 mph - N/A   Mostly Cloudy
10:20 AM 32.0 °F 28.7 °F 32.0 °F 100% 29.71 in 4.3 mi West 3.5 mph - N/A   Mostly Cloudy
10:50 AM 33.8 °F 28.6 °F 32.0 °F 93% 29.71 in 4.3 mi NW 5.8 mph - N/A   Mostly Cloudy
11:20 AM 33.8 °F 29.6 °F 32.0 °F 93% 29.71 in 5.0 mi NE 4.6 mph - N/A   Mostly Cloudy
11:50 AM 33.8 °F 28.6 °F 30.2 °F 87% 29.71 in 5.0 mi ENE 5.8 mph - N/A   Mostly Cloudy
12:20 PM 32.0 °F 26.4 °F 30.2 °F 93% 29.68 in 5.0 mi ESE 5.8 mph - N/A   Mostly Cloudy
12:50 PM 33.8 °F 30.8 °F 32.0 °F 93% 29.68 in 5.0 mi SE 3.5 mph - N/A   Mostly Cloudy
1:20 PM 33.8 °F 30.8 °F 30.2 °F 87% 29.68 in 5.0 mi SE 3.5 mph - N/A   Mostly Cloudy
1:50 PM 33.8 °F 30.8 °F 30.2 °F 87% 29.68 in 5.0 mi SW 3.5 mph - N/A   Mostly Cloudy
2:00 PM 33 °F - 31 °F 87%  in 5 mi SW 3.5 mph - -   Mist
2:20 PM 33.8 °F - 32.0 °F 93% 29.68 in 5.0 mi Variable 2.3 mph - N/A   Mostly Cloudy
2:50 PM 32.0 °F - 30.2 °F 93% 29.71 in 5.0 mi Variable 2.3 mph - N/A   Mostly Cloudy
3:20 PM 32.0 °F - 30.2 °F 93% 29.71 in 4.3 mi Variable 2.3 mph - N/A   Mostly Cloudy
3:50 PM 32.0 °F 27.5 °F 30.2 °F 93% 29.71 in 4.3 mi ESE 4.6 mph - N/A   Mostly Cloudy
4:20 PM 30.2 °F 25.4 °F 28.4 °F 93% 29.71 in 4.3 mi ESE 4.6 mph - N/A   Mostly Cloudy
4:50 PM 28.4 °F - 28.4 °F 100% 29.74 in 6.2 mi Calm Calm - N/A   Mostly Cloudy
5:20 PM 28.4 °F - 28.4 °F 100% 29.74 in 6.2 mi Variable 1.2 mph - N/A   Mostly Cloudy
5:50 PM 30.2 °F - 28.4 °F 93% 29.74 in 6.2 mi Variable 2.3 mph - N/A   Mostly Cloudy
6:20 PM 28.4 °F - 26.6 °F 93% 29.77 in 6.2 mi Variable 2.3 mph - N/A   Mostly Cloudy
6:50 PM 28.4 °F 24.6 °F 26.6 °F 93% 29.77 in 6.2 mi ENE 3.5 mph - N/A   Mostly Cloudy
7:20 PM 26.6 °F 22.6 °F 26.6 °F 100% 29.77 in 6.2 mi SW 3.5 mph - N/A   Mostly Cloudy
7:50 PM 23.0 °F 18.4 °F 23.0 °F 100% 29.77 in 0.2 mi SSW 3.5 mph - N/A Fog Light Freezing Fog
8:00 PM 24 °F - 24 °F 98%  in 0 mi SSW 3.5 mph - - Fog Heavy Fog
8:20 PM 23.0 °F 17.0 °F 23.0 °F 100% 29.80 in 0.2 mi SW 4.6 mph - N/A Fog Light Freezing Fog
8:50 PM 24.8 °F - 24.8 °F 100% 29.80 in 2.5 mi Variable 2.3 mph - N/A   Scattered Clouds
9:20 PM 23.0 °F 17.0 °F 23.0 °F 100% 29.80 in 2.5 mi SSW 4.6 mph - N/A   Scattered Clouds
9:50 PM 23.0 °F - 23.0 °F 100% 29.80 in 3.7 mi Variable 1.2 mph - N/A   Scattered Clouds
10:20 PM 23.0 °F - 23.0 °F 100% 29.83 in 6.2 mi NNW 2.3 mph - N/A   Scattered Clouds
10:50 PM 23.0 °F - 23.0 °F 100% 29.83 in 6.2 mi Variable 1.2 mph - N/A   Scattered Clouds
11:20 PM 21.2 °F 13.6 °F 21.2 °F 100% 29.83 in 6.2 mi SE 5.8 mph - N/A   Scattered Clouds
11:50 PM 23.0 °F 18.4 °F 21.2 °F 93% 29.83 in 3.7 mi SE 3.5 mph - N/A   Scattered Clouds